Location: Qazi Observatory
(41.6337°N, 88.1517°W)
Time: 08:21:58
(UTC-05:00)

Amateur Radio Satellites - All Passes

Search period start: 31 July 2015 07:51
Search period end: 01 August 2015 07:51
Location: Qazi Observatory, 41.6337°N, 88.1517°W

Satellite Date Start Highest point End Downlink Frequencies (MHz)
Time Altitude Azimuth
BEESAT 3 31 Jul 07:55:35 07:58:51 23° 46° (NE) 08:02:07 437.485
CUTE-I 31 Jul 07:58:16 08:03:21 46° 290° (WNW) 08:08:22 437.470
AO-7 31 Jul 07:59:59 08:03:00 12° 316° (NW) 08:05:33 29.400- 29.500
GONETS M04 31 Jul 08:00:37 08:08:27 35° 291° (WNW) 08:16:08
RS-15 31 Jul 08:22:13 08:33:17 46° 249° (WSW) 08:44:28 29.354- 29.394
BRITE-PL 31 Jul 08:23:19 08:27:33 49° 99° (E) 08:32:04 437.365/2234.400
PCSat 31 Jul 08:25:15 08:28:30 17° 106° (ESE) 08:32:01 145.827
M-CUBED/EXP-1 PRIME 31 Jul 08:28:11 08:31:26 24° 61° (ENE) 08:34:59 437.505
Cosmos 2499 31 Jul 08:30:56 08:38:18 80° 279° (W) 08:46:18 435.465 / 435.565
DOVE 4 31 Jul 08:34:15 08:37:57 24° 94° (E) 08:41:56 437.250
GOMX 1 31 Jul 08:39:51 08:44:09 44° 99° (E) 08:48:44 467.674
AIST 2 31 Jul 08:39:54 08:42:16 15° 39° (NE) 08:44:44 435.215
Cubesat XI-IV 31 Jul 08:42:55 08:46:46 20° 297° (WNW) 08:50:27 437.490
BEESAT 2 31 Jul 08:51:25 08:55:28 61° 55° (NE) 08:59:27 435.950
CINEMA 3 31 Jul 08:52:20 08:55:23 17° 91° (E) 08:58:39 145.822/145.860
HO-68 31 Jul 08:54:37 09:01:12 39° 97° (E) 09:07:52 435.675
AUBIESAT-1 31 Jul 08:57:58 09:01:46 42° 66° (ENE) 09:05:55 437.475
SO-50 31 Jul 09:14:35 09:18:43 31° 114° (ESE) 09:23:03 436.795
COMPASS 1 31 Jul 09:17:55 09:21:44 33° 96° (E) 09:25:34 437.405
UWE-3 31 Jul 09:18:44 09:20:03 11° 87° (E) 09:21:39 435.000/436.395/437.385
CUBEBUG 2 31 Jul 09:30:18 09:33:39 20° 92° (E) 09:37:11 437.445
SEEDS 31 Jul 09:30:53 09:35:08 60° 101° (E) 09:39:19 437.485
CUTE 1.7 + AOD 2 31 Jul 09:31:58 09:36:18 78° 102° (ESE) 09:40:34 437.475
Oscar 11 31 Jul 09:32:53 09:35:55 19° 91° (E) 09:39:04 145.826/435.025
BEESAT 3 31 Jul 09:33:09 09:36:53 36° 244° (WSW) 09:40:32 437.485
YUBILEINY 31 Jul 09:38:34 09:40:36 11° 51° (NE) 09:43:21 435.215
CANX-2 31 Jul 09:40:12 09:44:31 77° 285° (WNW) 09:48:48 2200.000
TIGRISAT 31 Jul 09:46:48 09:50:14 24° 68° (ENE) 09:53:49 435.000
ANTELSAT 31 Jul 09:47:59 09:51:32 26° 68° (ENE) 09:55:16 437.575/2403.000
DELFI C3 31 Jul 09:54:16 09:57:17 20° 93° (E) 10:00:22 145.870
AAUSAT CUBESAT 2 31 Jul 10:00:01 10:04:16 86° 101° (E) 10:08:27 437.432
M-CUBED/EXP-1 PRIME 31 Jul 10:02:30 10:06:05 31° 260° (W) 10:09:55 437.505
BRITE-PL 31 Jul 10:03:03 10:05:51 16° 293° (WNW) 10:08:34 437.365/2234.400
DUCHIFAT 1 31 Jul 10:03:05 10:05:05 14° 65° (ENE) 10:07:17 145.980
QB50P1 31 Jul 10:05:11 10:07:31 15° 65° (ENE) 10:10:01 145.935-145.965
PCSat 31 Jul 10:06:03 10:11:25 67° 302° (WNW) 10:16:51 145.827
NANOSAT C BR1 31 Jul 10:06:47 10:09:11 15° 65° (ENE) 10:11:43 145.865
DOVE 4 31 Jul 10:11:37 10:15:47 35° 289° (WNW) 10:20:06 437.250
AIST 2 31 Jul 10:17:11 10:21:23 76° 239° (WSW) 10:25:30 435.215
GOMX 1 31 Jul 10:18:51 10:22:05 19° 292° (WNW) 10:25:19 467.674
CINEMA 3 31 Jul 10:28:20 10:32:51 50° 286° (WNW) 10:37:31 145.822/145.860
Cosmos 2499 31 Jul 10:28:54 10:33:12 15° 304° (WNW) 10:37:13 435.465 / 435.565
ZACube-1 31 Jul 10:31:02 10:35:28 51° 99° (E) 10:39:57 437.345
BEESAT 2 31 Jul 10:31:19 10:33:03 12° 250° (WSW) 10:34:35 435.950
AUBIESAT-1 31 Jul 10:34:00 10:36:47 17° 265° (W) 10:39:34 437.475
UNISAT 6 31 Jul 10:38:35 10:42:54 89° 77° (ENE) 10:47:23 437.425
HO-68 31 Jul 10:42:19 10:49:00 42° 295° (WNW) 10:55:36 435.675
POLYITAN 1 31 Jul 10:45:58 10:49:53 41° 72° (ENE) 10:53:53 437.675
UWE-3 31 Jul 10:52:32 10:57:08 73° 284° (WNW) 11:01:47 435.000/436.395/437.385
FUNcube-1 31 Jul 10:53:08 10:57:41 87° 103° (ESE) 11:02:16 145.935
COMPASS 1 31 Jul 10:53:57 10:57:14 21° 292° (WNW) 11:00:23 437.405
SO-50 31 Jul 10:54:48 10:59:13 35° 313° (NW) 11:03:44 436.795
POPSAT HIP 1 31 Jul 11:03:13 11:07:21 63° 75° (ENE) 11:11:31 437.405
CUBEBUG 2 31 Jul 11:06:09 11:10:31 42° 288° (WNW) 11:14:57 437.445
O/OREOS (USA 219) 31 Jul 11:07:06 11:11:12 32° 59° (ENE) 11:15:21 437.305
AISAT 31 Jul 11:07:45 11:11:03 21° 93° (E) 11:14:27 437.250
Oscar 11 31 Jul 11:08:12 11:12:17 39° 288° (WNW) 11:16:19 145.826/435.025
SEEDS 31 Jul 11:08:22 11:10:27 13° 296° (WNW) 11:12:21 437.485
UKube-1 31 Jul 11:09:24 11:13:16 32° 97° (E) 11:17:09 .
QB50P2 31 Jul 11:10:33 11:14:45 81° 78° (ENE) 11:18:59 145.880/145.840
CUTE 1.7 + AOD 2 31 Jul 11:10:37 11:11:38 11° 297° (WNW) 11:12:24 437.475
BUGSAT 1 31 Jul 11:12:48 11:16:42 49° 73° (ENE) 11:20:37 437.445
TIGRISAT 31 Jul 11:23:00 11:26:52 31° 265° (W) 11:30:47 435.000
ANTELSAT 31 Jul 11:24:26 11:28:15 29° 265° (W) 11:32:06 437.575/2403.000
CUBEBUG 1 31 Jul 11:25:17 11:28:11 18° 92° (E) 11:31:12 437.445
HUMSAT D 31 Jul 11:26:03 11:30:25 85° 104° (ESE) 11:34:44 437.325/437.525
50 SAT 31 Jul 11:28:25 11:32:11 39° 98° (E) 11:35:56 437.505
DELFI C3 31 Jul 11:28:47 11:32:25 31° 289° (WNW) 11:35:58 145.870
YUBILEINY 31 Jul 11:31:18 11:39:59 58° 77° (ENE) 11:48:40 435.215
DX 1 31 Jul 11:35:39 11:39:59 70° 101° (E) 11:44:19 434.975-435.025
DUCHIFAT 1 31 Jul 11:36:23 11:40:29 55° 260° (W) 11:44:36 145.980
QB50P1 31 Jul 11:38:57 11:43:01 49° 261° (W) 11:47:07 145.935-145.965
NANOSAT C BR1 31 Jul 11:40:36 11:44:39 47° 261° (W) 11:48:44 145.865
VELOX 1 31 Jul 11:46:23 11:50:41 52° 100° (E) 11:55:00 145.980
PCSat 31 Jul 11:53:16 11:55:59 13° 324° (NW) 11:58:30 145.827
ESTCUBE 1 31 Jul 11:54:14 11:58:33 45° 99° (E) 12:02:51 437.505/2401.250
Cosmos 2491 31 Jul 12:04:52 12:13:01 47° 89° (E) 12:21:16 435.465 / 435.565
SPROUT 31 Jul 12:05:23 12:07:42 15° 90° (E) 12:10:12 437.525
ZACube-1 31 Jul 12:08:30 12:11:28 17° 294° (WNW) 12:14:18 437.345
Cosmos 2504 31 Jul 12:16:47 12:20:44 14° 57° (ENE) 12:25:18 435.465 / 435.565
TISAT 1 31 Jul 12:21:18 12:23:07 13° 89° (E) 12:25:09 437.305
POLYITAN 1 31 Jul 12:23:16 12:26:02 17° 269° (W) 12:28:40 437.675
AIST 1 31 Jul 12:28:37 12:32:58 84° 97° (E) 12:37:20
FUNcube-1 31 Jul 12:32:22 12:33:24 10° 298° (WNW) 12:34:10 145.935
POPSAT HIP 1 31 Jul 12:42:38 12:43:44 11° 272° (W) 12:44:34 437.405
AISAT 31 Jul 12:43:42 12:47:45 36° 290° (WNW) 12:51:46 437.250
UKube-1 31 Jul 12:45:47 12:49:15 23° 293° (WNW) 12:52:37 .
O/OREOS (USA 219) 31 Jul 12:46:42 12:50:32 26° 256° (WSW) 12:54:16 437.305
BUGSAT 1 31 Jul 12:50:32 12:52:31 13° 270° (W) 12:54:17 437.445
CUBEBUG 1 31 Jul 13:00:41 13:04:45 40° 289° (WNW) 13:08:47 437.445
ITAMSAT 1 31 Jul 13:02:31 13:05:07 14° 61° (ENE) 13:07:57 435.822/435.867
50 SAT 31 Jul 13:03:53 13:06:28 16° 293° (WNW) 13:08:55 437.505
DX 1 31 Jul 13:13:59 13:15:44 12° 297° (WNW) 13:17:16 434.975-435.025
Oscar 19 31 Jul 13:19:45 13:24:49 70° 74° (ENE) 13:29:57 437.125/150
VELOX 1 31 Jul 13:24:09 13:26:51 16° 295° (WNW) 13:29:24 145.980
AO-7 31 Jul 13:24:26 13:27:13 12° 44° (NE) 13:30:28 29.400- 29.500
YUBILEINY 31 Jul 13:28:54 13:36:23 31° 275° (W) 13:43:38 435.215
ESTCUBE 1 31 Jul 13:31:59 13:35:07 18° 294° (WNW) 13:38:06 437.505/2401.250
SPROUT 31 Jul 13:39:57 13:44:07 49° 287° (WNW) 13:48:15 437.525
TISAT 1 31 Jul 13:55:09 13:59:16 54° 287° (WNW) 14:03:22 437.305
Cosmos 2491 31 Jul 14:01:57 14:10:04 39° 289° (WNW) 14:18:05 435.465 / 435.565
Cosmos 2504 31 Jul 14:06:21 14:14:44 70° 80° (E) 14:23:21 435.465 / 435.565
BEESAT 31 Jul 14:07:50 14:12:04 32° 96° (E) 14:16:21 436.000
Gurwin Techsat 1B 31 Jul 14:11:56 14:17:11 66° 74° (ENE) 14:22:29 435.225
JAS-2 31 Jul 14:22:35 14:27:58 34° 64° (ENE) 14:34:04 435.910
SWISSCUBE 31 Jul 14:27:58 14:32:41 55° 100° (E) 14:37:21 437.505
ITAMSAT 1 31 Jul 14:38:48 14:44:02 79° 256° (WSW) 14:49:18 435.822/435.867
DANDE 31 Jul 14:42:42 14:44:35 13° 74° (ENE) 14:46:54 436.750
ITUPSAT 1 31 Jul 14:48:29 14:53:18 81° 103° (ESE) 14:58:05 437.325
Oscar 19 31 Jul 15:02:08 15:04:48 14° 272° (W) 15:07:13 437.125/150
CUSAT 1 31 Jul 15:06:53 15:10:46 44° 79° (ENE) 15:15:54 437.405
AO-7 31 Jul 15:10:19 15:18:17 52° 65° (ENE) 15:26:20 29.400- 29.500
KKS-1 31 Jul 15:12:58 15:16:36 25° 94° (E) 15:20:19 437.445
HORYU 2 31 Jul 15:17:15 15:21:13 33° 70° (ENE) 15:25:16 437.375
BEESAT 31 Jul 15:45:46 15:49:51 28° 292° (WNW) 15:53:51 436.000
Gurwin Techsat 1B 31 Jul 15:54:28 15:57:44 16° 271° (W) 16:00:46 435.225
Cosmos 2504 31 Jul 15:59:42 16:06:21 26° 277° (W) 16:12:49 435.465 / 435.565
SWISSCUBE 31 Jul 16:07:00 16:10:08 17° 296° (WNW) 16:13:05 437.505
JAS-2 31 Jul 16:07:13 16:12:54 42° 265° (W) 16:19:17 435.910
GONETS M04 31 Jul 16:13:11 16:20:03 26° 64° (ENE) 16:27:11
STARS 31 Jul 16:23:49 16:28:16 87° 103° (ESE) 16:32:42 437.465
DANDE 31 Jul 16:24:07 16:27:39 41° 261° (W) 16:32:15 436.750
ITUPSAT 1 31 Jul 16:28:35 16:30:36 12° 299° (WNW) 16:32:23 437.325
Cubesat XI-IV 31 Jul 16:47:29 16:49:55 14° 60° (ENE) 16:52:36 437.490
KKS-1 31 Jul 16:49:19 16:53:16 31° 291° (WNW) 16:57:10 437.445
CUSAT 1 31 Jul 16:50:26 16:53:18 17° 265° (W) 16:56:26 437.405
HORYU 2 31 Jul 16:54:21 16:57:57 23° 266° (W) 17:01:28 437.375
AO-7 31 Jul 17:03:44 17:11:21 37° 264° (W) 17:18:52 29.400- 29.500
PCSat 31 Jul 17:11:23 17:15:02 18° 41° (NE) 17:18:49 145.827
MOZHAYETS 4 31 Jul 17:34:25 17:39:05 82° 283° (WNW) 17:43:41
CUTE-I 31 Jul 17:40:42 17:45:36 39° 69° (ENE) 17:50:34 437.470
SO-50 31 Jul 17:45:29 17:49:59 33° 47° (NE) 17:54:26 436.795
CUBESAT XI-V 31 Jul 17:51:34 17:53:24 12° 88° (E) 17:55:28 437.345
GONETS M04 31 Jul 18:09:08 18:17:48 70° 266° (W) 18:26:27
Cosmos 2499 31 Jul 18:21:02 18:29:05 41° 71° (ENE) 18:37:22 435.465 / 435.565
Cubesat XI-IV 31 Jul 18:23:58 18:29:21 87° 253° (WSW) 18:34:46 437.490
VERMONT LUNAR 31 Jul 18:51:10 18:53:56 28° 158° (SSE) 18:56:45 437.305
PCSat 31 Jul 18:53:44 18:59:11 82° 244° (WSW) 19:04:36 145.827
PRISM 31 Jul 19:12:41 19:15:34 19° 93° (E) 19:18:32 437.425
CUTE-I 31 Jul 19:21:12 19:25:48 28° 266° (W) 19:30:19 437.470
HO-68 31 Jul 19:23:57 19:29:54 31° 62° (ENE) 19:36:01 435.675
SO-50 31 Jul 19:26:03 19:30:32 34° 245° (WSW) 19:34:52 436.795
CUBESAT XI-V 31 Jul 19:26:48 19:31:22 64° 285° (WNW) 19:35:54 437.345
BRITE-PL 31 Jul 19:34:49 19:39:09 57° 75° (ENE) 19:43:17 437.365/2234.400
DOVE 4 31 Jul 19:41:02 19:44:13 22° 68° (ENE) 19:47:29 437.250
STRAND 1 31 Jul 19:41:55 19:46:53 51° 99° (E) 19:51:51 437.568
GOMX 1 31 Jul 19:48:51 19:52:53 45° 73° (ENE) 19:56:52 467.674
CINEMA 3 31 Jul 19:55:39 19:57:50 14° 65° (ENE) 20:00:12 145.822/145.860
Cubesat XI-IV 31 Jul 20:09:13 20:10:21 10° 274° (W) 20:11:06 437.490
COMPASS 1 31 Jul 20:09:32 20:12:53 24° 69° (ENE) 20:16:21 437.405
GONETS M04 31 Jul 20:09:50 20:13:13 12° 284° (WNW) 20:15:55
Cosmos 2499 31 Jul 20:14:08 20:22:25 47° 271° (W) 20:30:41 435.465 / 435.565
SEEDS 31 Jul 20:22:55 20:26:55 42° 72° (ENE) 20:30:58 437.485
CUTE 1.7 + AOD 2 31 Jul 20:24:42 20:28:53 55° 74° (ENE) 20:33:06 437.475
ISS 31 Jul 20:26:06 20:27:45 14° 132° (SE) 20:29:31 145.825
VERMONT LUNAR 31 Jul 20:27:17 20:30:27 68° 174° (S) 20:33:37 437.305
Oscar 11 31 Jul 20:28:33 20:31:07 16° 65° (ENE) 20:33:52 145.826/435.025
CUBEBUG 2 31 Jul 20:29:50 20:32:20 16° 65° (ENE) 20:35:02 437.445
PHONESAT 2.4 31 Jul 20:32:27 20:35:28 27° 156° (SSE) 20:38:30 2401.200-2431.200
CANX-2 31 Jul 20:32:54 20:37:10 77° 76° (ENE) 20:41:29 2200.000
RS-15 31 Jul 20:35:18 20:44:08 32° 106° (ESE) 20:53:32 29.354- 29.394
PCSat 31 Jul 20:41:05 20:41:52 10° 257° (WSW) 20:42:16 145.827
DELFI C3 31 Jul 20:42:35 20:44:40 14° 65° (ENE) 20:46:54 145.870
PRISM 31 Jul 20:47:22 20:51:08 34° 289° (WNW) 20:54:50 437.425
AAUSAT CUBESAT 2 31 Jul 20:50:34 20:54:40 57° 75° (ENE) 20:58:50 437.432
HO-68 31 Jul 21:10:21 21:17:20 55° 259° (W) 21:24:20 435.675
BRITE-PL 31 Jul 21:16:15 21:18:06 12° 271° (W) 21:19:42 437.365/2234.400
DOVE 4 31 Jul 21:18:13 21:21:54 29° 265° (W) 21:25:31 437.250
STRAND 1 31 Jul 21:22:00 21:25:46 20° 296° (WNW) 21:29:22 437.568
ZACube-1 31 Jul 21:27:23 21:31:16 39° 72° (ENE) 21:35:17 437.345
GOMX 1 31 Jul 21:28:57 21:31:21 14° 270° (W) 21:33:34 467.674
CINEMA 3 31 Jul 21:30:38 21:34:39 49° 261° (W) 21:38:46 145.822/145.860
M-CUBED/EXP-1 PRIME 31 Jul 21:43:11 21:46:44 21° 96° (E) 21:50:20 437.505
COMPASS 1 31 Jul 21:44:44 21:48:26 29° 265° (W) 21:52:08 437.405
FUNcube-1 31 Jul 21:49:00 21:53:09 67° 75° (ENE) 21:57:24 145.935
UWE-3 31 Jul 21:49:51 21:54:02 87° 256° (WSW) 21:58:20 435.000/436.395/437.385
SEEDS 31 Jul 22:00:08 22:02:57 17° 269° (W) 22:05:37 437.485
ISS 31 Jul 22:00:36 22:03:51 69° 326° (NW) 22:07:06 145.825
Oscar 11 31 Jul 22:02:44 22:06:57 49° 261° (W) 22:11:11 145.826/435.025
CUTE 1.7 + AOD 2 31 Jul 22:03:08 22:05:12 13° 272° (W) 22:07:04 437.475
VERMONT LUNAR 31 Jul 22:03:58 22:07:06 59° 190° (S) 22:10:13 437.305
UKube-1 31 Jul 22:04:30 22:08:11 29° 69° (ENE) 22:11:56 .
CUBEBUG 2 31 Jul 22:04:40 22:08:41 45° 261° (W) 22:12:48 437.445
AISAT 31 Jul 22:06:02 22:09:13 20° 66° (ENE) 22:12:31 437.250
PHONESAT 2.4 31 Jul 22:09:41 22:13:10 67° 172° (S) 22:16:40 2401.200-2431.200
AUBIESAT-1 31 Jul 22:12:29 22:16:49 35° 101° (E) 22:21:04 437.475
50 SAT 31 Jul 22:12:46 22:15:50 23° 69° (ENE) 22:19:00 437.505
Cosmos 2491 31 Jul 22:15:19 22:21:44 23° 63° (ENE) 22:28:28 435.465 / 435.565
DELFI C3 31 Jul 22:15:24 22:19:21 50° 261° (W) 22:23:20 145.870
HUMSAT D 31 Jul 22:17:46 22:21:49 59° 74° (ENE) 22:25:58 437.325/437.525
CUBEBUG 1 31 Jul 22:22:10 22:24:51 17° 66° (ENE) 22:27:40 437.445
AAUSAT CUBESAT 2 31 Jul 22:28:59 22:30:43 12° 272° (W) 22:32:15 437.432
UNISAT 6 31 Jul 22:30:56 22:34:17 20° 92° (E) 22:37:47 437.425
DX 1 31 Jul 22:31:14 22:35:30 61° 74° (ENE) 22:39:48 434.975-435.025
AIST 1 31 Jul 22:36:18 22:39:27 20° 71° (ENE) 22:42:42
YUBILEINY 31 Jul 22:43:30 22:45:19 11° 75° (ENE) 22:47:53 435.215
VELOX 1 31 Jul 22:44:00 22:48:14 48° 72° (ENE) 22:52:30 145.980
RS-15 31 Jul 22:44:44 22:55:39 73° 307° (NW) 23:07:02 29.354- 29.394
BEESAT 2 31 Jul 22:48:16 22:48:55 10° 109° (ESE) 22:49:49 435.950
POPSAT HIP 1 31 Jul 22:51:14 22:51:32 10° 87° (E) 22:52:06 437.405
ESTCUBE 1 31 Jul 22:53:55 22:58:11 43° 72° (ENE) 23:02:30 437.505/2401.250
QB50P2 31 Jul 22:57:19 22:59:14 13° 89° (E) 23:01:21 145.880/145.840
SPROUT 31 Jul 23:00:47 23:02:31 13° 64° (ENE) 23:04:28 437.525
ZACube-1 31 Jul 23:04:59 23:07:52 17° 269° (W) 23:10:39 437.345
TIGRISAT 31 Jul 23:13:35 23:18:09 52° 99° (E) 23:22:45 435.000
TISAT 1 31 Jul 23:15:03 23:15:59 11° 63° (ENE) 23:17:08 437.305
ANTELSAT 31 Jul 23:15:09 23:19:47 56° 100° (E) 23:24:26 437.575/2403.000
M-CUBED/EXP-1 PRIME 31 Jul 23:17:06 23:21:42 46° 294° (WNW) 23:26:12 437.505
DUCHIFAT 1 31 Jul 23:21:14 23:24:33 22° 94° (E) 23:27:57 145.980
QB50P1 31 Jul 23:24:03 23:27:33 25° 94° (E) 23:31:08 145.935-145.965
BEESAT 3 31 Jul 23:25:24 23:29:06 35° 116° (ESE) 23:32:53 437.485
NANOSAT C BR1 31 Jul 23:25:26 23:28:58 25° 95° (E) 23:32:32 145.865
ISS 31 Jul 23:38:22 23:40:45 18° 346° (NNW) 23:43:07 145.825
UKube-1 31 Jul 23:40:40 23:44:18 25° 265° (W) 23:47:52 .
VERMONT LUNAR 31 Jul 23:41:03 23:43:30 20° 206° (SSW) 23:45:55 437.305
AISAT 31 Jul 23:41:26 23:45:34 38° 262° (W) 23:49:41 437.250
50 SAT 31 Jul 23:47:01 23:50:19 25° 265° (W) 23:53:36 437.505
AUBIESAT-1 31 Jul 23:47:19 23:51:22 28° 297° (WNW) 23:55:15 437.475
PHONESAT 2.4 31 Jul 23:47:34 23:51:04 65° 189° (S) 23:54:32 2401.200-2431.200
HUMSAT D 31 Jul 23:56:35 23:58:03 11° 272° (W) 23:59:15 437.325/437.525
CUBEBUG 1 31 Jul 23:56:39 00:00:52 47° 261° (W) 00:05:05 437.445
POLYITAN 1 01 Aug 00:06:26 00:10:43 78° 102° (ESE) 00:15:01 437.675
UNISAT 6 01 Aug 00:06:49 00:11:16 43° 288° (WNW) 00:15:43 437.425
DX 1 01 Aug 00:10:28 00:12:14 12° 271° (W) 00:13:45 434.975-435.025
Cosmos 2491 01 Aug 00:11:00 00:19:44 78° 265° (W) 00:28:25 435.465 / 435.565
AIST 1 01 Aug 00:13:23 00:17:13 32° 269° (W) 00:20:58
AIST 2 01 Aug 00:15:51 00:19:05 22° 113° (ESE) 00:22:25 435.215
ITUPSAT 1 01 Aug 00:21:21 00:22:51 12° 61° (ENE) 00:24:36 437.325
VELOX 1 01 Aug 00:22:20 00:25:06 16° 269° (W) 00:27:42 145.980
BEESAT 2 01 Aug 00:22:22 00:26:27 73° 304° (WNW) 00:30:36 435.950
POPSAT HIP 1 01 Aug 00:23:42 00:27:57 69° 285° (WNW) 00:32:11 437.405
BUGSAT 1 01 Aug 00:29:43 00:33:48 86° 106° (ESE) 00:37:54 437.445
QB50P2 01 Aug 00:31:20 00:35:31 54° 286° (WNW) 00:39:40 145.880/145.840
YUBILEINY 01 Aug 00:32:03 00:40:36 66° 93° (E) 00:49:16 435.215
ESTCUBE 1 01 Aug 00:32:03 00:35:17 18° 269° (W) 00:38:23 437.505/2401.250
SPROUT 01 Aug 00:33:54 00:38:08 63° 259° (W) 00:42:22 437.525
TISAT 1 01 Aug 00:47:03 00:51:13 72° 258° (WSW) 00:55:25 437.305
TIGRISAT 01 Aug 00:51:21 00:54:32 18° 295° (WNW) 00:57:34 435.000
ANTELSAT 01 Aug 00:53:08 00:56:10 17° 295° (WNW) 00:59:02 437.575/2403.000
DUCHIFAT 1 01 Aug 00:56:38 01:00:24 31° 290° (WNW) 01:04:07 145.980
QB50P1 01 Aug 00:59:44 01:03:24 28° 291° (WNW) 01:07:01 145.935-145.965
NANOSAT C BR1 01 Aug 01:01:08 01:04:45 27° 291° (WNW) 01:08:20 145.865
RS-15 01 Aug 01:01:19 01:10:35 28° 337° (NNW) 01:20:01 29.354- 29.394
BEESAT 3 01 Aug 01:03:46 01:07:09 24° 314° (NW) 01:10:29 437.485
BEESAT 01 Aug 01:14:24 01:18:47 38° 70° (ENE) 01:23:14 436.000
ISS 01 Aug 01:16:09 01:18:06 15° 6° (N) 01:20:04 145.825
O/OREOS (USA 219) 01 Aug 01:19:38 01:23:38 34° 106° (ESE) 01:27:44 437.305
PHONESAT 2.4 01 Aug 01:25:47 01:28:45 26° 205° (SSW) 01:31:40 2401.200-2431.200
Oscar 19 01 Aug 01:31:40 01:35:48 24° 93° (E) 01:40:03 437.125/150
SWISSCUBE 01 Aug 01:34:30 01:39:15 66° 74° (ENE) 01:44:03 437.505
POLYITAN 1 01 Aug 01:45:08 01:46:04 10° 297° (WNW) 01:46:46 437.675
AIST 2 01 Aug 01:53:27 01:57:27 38° 309° (NW) 02:01:28 435.215
ITUPSAT 1 01 Aug 01:55:16 02:00:06 87° 256° (WSW) 02:04:58 437.325
BEESAT 2 01 Aug 02:04:04 02:05:18 11° 324° (NW) 02:06:23 435.950
Cosmos 2491 01 Aug 02:10:52 02:15:19 14° 283° (WNW) 02:19:08 435.465 / 435.565
KKS-1 01 Aug 02:11:34 02:15:04 24° 68° (ENE) 02:18:39 437.445
Gurwin Techsat 1B 01 Aug 02:28:31 02:32:50 25° 93° (E) 02:37:15 435.225
YUBILEINY 01 Aug 02:30:56 02:38:14 28° 295° (WNW) 02:45:21 435.215
Cosmos 2504 01 Aug 02:37:25 02:44:08 49° 90° (E) 02:51:25 435.465 / 435.565
ITAMSAT 1 01 Aug 02:51:45 02:56:29 36° 97° (E) 03:01:14 435.822/435.867
ISS 01 Aug 02:52:17 02:55:17 32° 25° (NNE) 02:58:17 145.825
BEESAT 01 Aug 02:52:54 02:56:46 23° 267° (W) 03:00:33 436.000
O/OREOS (USA 219) 01 Aug 02:59:27 03:03:09 24° 303° (WNW) 03:06:50 437.305
MOZHAYETS 4 01 Aug 03:03:12 03:04:13 11° 62° (ENE) 03:05:30
Oscar 19 01 Aug 03:10:28 03:15:20 41° 290° (WNW) 03:20:09 437.125/150
AO-7 01 Aug 03:14:10 03:17:53 14° 85° (E) 03:22:13 29.400- 29.500
SWISSCUBE 01 Aug 03:15:11 03:17:39 13° 271° (W) 03:19:51 437.505
JAS-2 01 Aug 03:15:20 03:22:18 35° 92° (E) 03:29:16 435.910
RS-15 01 Aug 03:19:35 03:28:08 23° 11° (N) 03:37:06 29.354- 29.394
STARS 01 Aug 03:20:39 03:25:00 78° 77° (ENE) 03:29:24 437.465
KKS-1 01 Aug 03:47:35 03:51:34 32° 263° (W) 03:55:32 437.445
DANDE 01 Aug 03:56:59 03:58:00 11° 96° (E) 03:59:06 436.750
Gurwin Techsat 1B 01 Aug 04:08:00 04:12:59 41° 290° (WNW) 04:17:54 435.225
CUSAT 1 01 Aug 04:16:34 04:19:18 36° 97° (E) 04:21:46 437.405
ISS 01 Aug 04:28:43 04:31:43 34° 223° (SW) 04:34:42 145.825
Cosmos 2504 01 Aug 04:30:26 04:36:43 31° 292° (WNW) 04:43:15 435.465 / 435.565
ITAMSAT 1 01 Aug 04:31:27 04:35:53 29° 293° (WNW) 04:40:13 435.822/435.867
MOZHAYETS 4 01 Aug 04:36:10 04:40:49 87° 258° (WSW) 04:45:30
HORYU 2 01 Aug 04:44:06 04:48:36 66° 101° (ESE) 04:53:05 437.375
CUBESAT XI-V 01 Aug 04:55:23 04:57:43 14° 64° (ENE) 05:00:15 437.345
JAS-2 01 Aug 04:59:59 05:07:33 53° 291° (WNW) 05:15:00 435.910
AO-7 01 Aug 05:03:52 05:12:15 77° 106° (ESE) 05:20:34 29.400- 29.500
GONETS M04 01 Aug 05:15:21 05:22:17 29° 84° (E) 05:29:28
STRAND 1 01 Aug 05:24:09 05:24:33 10° 58° (ENE) 05:25:15 437.568
RS-15 01 Aug 05:33:20 05:44:29 48° 42° (NE) 05:56:09 29.354- 29.394
DANDE 01 Aug 05:38:33 05:41:01 20° 284° (WNW) 05:43:09 436.750
CUTE-I 01 Aug 05:58:57 06:01:39 14° 88° (E) 06:04:38 437.470
PRISM 01 Aug 06:03:28 06:05:57 16° 65° (ENE) 06:08:34 437.425
HORYU 2 01 Aug 06:22:27 06:24:45 14° 297° (WNW) 06:26:51 437.375
CUBESAT XI-V 01 Aug 06:30:01 06:34:41 66° 259° (W) 06:39:21 437.345
Cubesat XI-IV 01 Aug 06:41:21 06:46:15 37° 97° (E) 06:51:09 437.490
JAS-2 01 Aug 06:48:22 06:51:06 12° 309° (NW) 06:53:21 435.910
AO-7 01 Aug 06:57:43 07:04:21 26° 305° (NW) 07:10:43 29.400- 29.500
STRAND 1 01 Aug 06:57:51 07:02:59 76° 73° (ENE) 07:08:08 437.568
Cosmos 2499 01 Aug 06:59:14 07:05:12 28° 84° (E) 07:11:44 435.465 / 435.565
BEESAT 2 01 Aug 07:05:37 07:06:27 11° 35° (NE) 07:07:26 435.950
GONETS M04 01 Aug 07:10:01 07:18:37 61° 283° (WNW) 07:27:13
PRISM 01 Aug 07:36:59 07:41:03 46° 260° (W) 07:45:06 437.425
CUTE-I 01 Aug 07:37:04 07:42:23 71° 286° (WNW) 07:47:39 437.470
BRITE-PL 01 Aug 07:39:25 07:42:16 17° 92° (E) 07:45:24 437.365/2234.400
BEESAT 3 01 Aug 07:43:41 07:47:04 25° 46° (NE) 07:50:28 437.485
